This is the latest recevied weather packets stored in our database for station/object K7DC. If no packets are shown the sender has not sent any weather packets the latest 10 day(s).
| Time | Temp. | Humidity | Pressure | Rain* | Wind** | Luminosity | Snow |
|---|---|---|---|---|---|---|---|
| 1787853644 | 37.22° C | 33% | 1016.9 hPa | 0 mm | - | 812 W/m² | - |
| 1787853344 | 36.67° C | 35% | 1017.1 hPa | 0 mm | - | 804 W/m² | - |
| 1787853039 | 36.67° C | 36% | 1016.9 hPa | 0 mm | - | 795 W/m² | - |
| 1787852739 | 36.67° C | 34% | 1017.1 hPa | 0 mm | - | 786 W/m² | - |
| 1787852437 | 36.67° C | 36% | 1017.3 hPa | 0 mm | - | 777 W/m² | - |
| 1787852132 | 37.22° C | 36% | 1017.2 hPa | 0 mm | - | 766 W/m² | - |
| 1787851828 | 37.78° C | 33% | 1017.2 hPa | 0 mm | - | 756 W/m² | - |
| 1787851527 | 37.22° C | 35% | 1017.2 hPa | 0 mm | - | 746 W/m² | - |
| 1787851226 | 37.22° C | 34% | 1017.2 hPa | 0 mm | - | 734 W/m² | - |
| 1787850922 | 36.67° C | 34% | 1017.3 hPa | 0 mm | - | 723 W/m² | - |
| 1787850619 | 36.67° C | 34% | 1017.3 hPa | 0 mm | - | 711 W/m² | - |
| 1787850313 | 36.67° C | 34% | 1017.3 hPa | 0 mm | - | 699 W/m² | - |
| 1787850009 | 35.56° C | 37% | 1017.4 hPa | 0 mm | - | 681 W/m² | - |
| 1787849702 | 35.56° C | 38% | 1017.7 hPa | 0 mm | - | 667 W/m² | - |
| 1787849398 | 35.56° C | 38% | 1017.7 hPa | 0 mm | - | 654 W/m² | - |
| 1787849096 | 35.56° C | 38% | 1017.7 hPa | 0 mm | - | 641 W/m² | - |
| 1787848791 | 35° C | 41% | 1017.6 hPa | 0 mm | - | 627 W/m² | - |
| 1787848490 | 35.56° C | 39% | 1017.6 hPa | 0 mm | - | 613 W/m² | - |
| 1787848185 | 35° C | 41% | 1017.6 hPa | 0 mm | - | 598 W/m² | - |
| 1787847885 | 35.56° C | 40% | 1017.7 hPa | 0 mm | - | 582 W/m² | - |
| 1787847580 | 36.11° C | 39% | 1017.4 hPa | 0 mm | - | 566 W/m² | - |
| 1787847275 | 35.56° C | 40% | 1017.4 hPa | 0 mm | - | 553 W/m² | - |
| 1787846972 | 35.56° C | 39% | 1017.4 hPa | 0 mm | - | 538 W/m² | - |
| 1787846673 | 36.11° C | 39% | 1017.6 hPa | 0 mm | - | 522 W/m² | - |
| 1787846366 | 35° C | 41% | 1017.2 hPa | 0 mm | - | 505 W/m² | - |
* Rain latest hour (hover to see other rain measurements)
** Current wind speed in m/s (hover to see current wind gust speed)